Regional Weather Roundup
Issued by NWS

Home | Current Version | Previous Version | Text Only | Print | Product List | Glossary On
Versions: 1 2 3 4 5 6 7 8 9 10 11 12 13 14 15 16 17 18 19 20 21 22 23 24 25 26 27 28 29 30 31 32 33 34 35 36 37 38 39 40 41 42 43 44 45 46 47 48 49 50
000
ASUS44 KOUN 212010
RWROK

WEATHER ROUNDUP FOR OKLAHOMA
NATIONAL WEATHER SERVICE NORMAN OK
300 PM CDT FRI JUL 21 2017

NOTE: "FAIR" INDICATES FEW OR NO CLOUDS BELOW 12,000 FEET WITH NO
      SIGNIFICANT WEATHER AND/OR OBSTRUCTIONS TO VISIBILITY.

OKZ001>007-009>012-014-015-017-212100-
NORTHWEST OKLAHOMA AND THE PANHANDLE

CITY           SKY/WX    TMP DP  RH WIND       PRES   REMARKS
GAGE           MOSUNNY  104  55  19 SW12G23   29.94F HX 102
GUYMON         SUNNY    102  51  18 SW21G30   29.96F HX  99
ENID/WOODRING  PTSUNNY  108  61  21 S16G24    29.88F HX 109
$$

OKZ016-021>023-033>039-044-045-212100-
SOUTHWEST OKLAHOMA

CITY           SKY/WX    TMP DP  RH WIND       PRES   REMARKS
LAWTON/REGL    SUNNY    100  67  33 S7        29.94F HX 105
LAWTON/FT SILL MOSUNNY   99  68  36 VRB6      29.94F HX 104
FREDERICK      MOSUNNY  102  63  27 S9        29.91F HX 104
CLINTON        SUNNY    100  56  23 S15G23    29.97F HX  99
HOBART         SUNNY    103  59  23 SW20G28   29.95F HX 103
$$

OKZ018>020-024>031-212100-
CENTRAL OKLAHOMA

CITY           SKY/WX    TMP DP  RH WIND       PRES   REMARKS
OKLAHOMA CITY  MOSUNNY  101  61  26 SW12G21   29.94F HX 102
OKC/WILEY POST MOSUNNY  101  64  29 SW13      29.94F HX 104
STILLWATER     MOSUNNY  100  65  31 S14       29.91F HX 103
GUTHRIE        SUNNY    104  64  27 SW13G20   29.92F HX 107
$$

OKZ008-013-054>072-212100-
NORTHEAST OKLAHOMA

CITY           SKY/WX    TMP DP  RH WIND       PRES   REMARKS
TULSA          MOSUNNY  100  69  36 S14       29.91F HX 106
TULSA/JONES    SUNNY    102  65  29 S10G17    29.92F HX 105
PONCA CITY     MOSUNNY  100  64  30 S10G21    29.89F HX 102
BARTLESVILLE   SUNNY    102  69  34 SW10      29.92F HX 109
MUSKOGEE       SUNNY     95  73  48 S12       29.97F HX 104
$$

OKZ032-040>043-046>053-073>077-212100-
SOUTH CENTRAL/SOUTHEAST OKLAHOMA

CITY           SKY/WX    TMP DP  RH WIND       PRES   REMARKS
ARDMORE/DWNTWN PTSUNNY   97  63  32 W8        29.95F HX  98
MCALESTER      MOSUNNY   94  74  52 S5        29.98F HX 104
$$




USA.gov is the U.S. government's official web portal to all federal, state and local government web resources and services.